星链-34374 (STARLINK-34374)

导读 | 星芒AI

STARLINK-34374 是 SpaceX Starlink 项目中的一颗低轨通信卫星,属于第三代星链卫星(v1.5)。它于2023年发射,运行在约540公里高度的近地轨道,旨在为全球提供高速互联网服务。该卫星采用先进推进系统和激光通信技术,支持更高效的网络连接和更低的延迟。作为星链星座的一部分,STARLINK-34374 有助于扩大覆盖范围,提升偏远地区的网络接入能力,并增强整体系统的冗余与稳定性。

基本信息
目录编号:
64308
目录名称:
STARLINK-34374
国际标识:
2025-123T
轨道中心:
EARTH
卫星名称:
星链-34374
卫星全名:
星链-34374 (STARLINK-34374)
卫星状态:
在轨 (已飞行154 天)
发射日期:
2025-06-08 UTC
国别 :
美国 (US)
星等 :
--
轨道信息
数据来源 国际轨道数据
星历时间: 2025-11-09T02:27:16+0800
17小时前
查看轨道信息
半长轴: 6950.139km
偏心率: 0.0002084
轨道倾角: 69.999°
近地点辐角 280.824°
升交点赤经 139.423°
平近点角 79.269°
近地点: 570.555km
远地点: 573.453km
周期: 96.106分钟
每日圈数: 14.983475
详细信息
固有亮度:
5
最大亮度:
2.5
卫星平台:
Starlink V1.0
覆盖范围:
全球
运营商:
太空探索技术公司
运营商所在国:
美国
制造商(研发单位):
太空探索技术公司
制造商所在国:
美国
使用方式:
暂无
卫星简介
Starlink 计划是 SpaceX 推出的全球卫星互联网项目,通过发射低轨道卫星,为全球尤其是偏远地区提供高速、低延迟的互联网服务。自 2019 年起,Starlink 已部署数千颗卫星,旨在缩小全球数字鸿沟,推动互联网普及。该项目还为军事、航空等行业提供通信支持,带来广泛经济效益。
2D轨道图
3D轨道图
轨道高度分析图
轨道倾角分析图
轨道综合分析图
查看轨道综合分析图